User: anonymous   Login
Location: Unspecified
(0.0000°N, 0.0000°E)
Time: 12:06:28
(UTC+01:00)
Language:

Cosmos 1933 - Orbit

View from above orbital plane
View from above orbital plane
View from above satellite
View from above satellite

Ground track
Ground track

The orbit data is extracted from the following two-line orbital elements,

1 18958U 88020A   14304.11050195  .00002667  00000-0  20655-3 0  4697
2 18958 082.5288 309.2357 0010565 308.4073 051.6202 15.01039379447365
Epoch (UTC): 31 October 2014 02:39:07
Eccentricity: 0.0010565
inclination: 82.5288°
perigee height: 556 km
apogee height: 571 km
right ascension of ascending node: 309.2357°
argument of perigee: 308.4073°
revolutions per day: 15.01039379
mean anomaly at epoch: 51.6202°
orbit number at epoch: 44736

The dashed part of the orbit path shows where the satellite is in the earth's shadow,  

DLR